This is the latest recevied weather packets stored in our database for station/object F4IRV-1. If no packets are shown the sender has not sent any weather packets the latest 10 day(s).
| Time | Temp. | Humidity | Pressure | Rain* | Wind** | Luminosity | Snow |
|---|---|---|---|---|---|---|---|
| 1778280677 | 22.22° C | 40% | 1005.6 hPa | - | - | - | - |
| 1778278883 | 22.22° C | 40% | 1005.8 hPa | - | - | - | - |
| 1778277080 | 22.78° C | 40% | 1005.7 hPa | - | - | - | - |
| 1778275282 | 22.78° C | 41% | 1005.6 hPa | - | - | - | - |
| 1778273484 | 22.78° C | 41% | 1005.4 hPa | - | - | - | - |
| 1778271676 | 22.78° C | 41% | 1005.5 hPa | - | - | - | - |
| 1778269878 | 23.33° C | 41% | 1005.3 hPa | - | - | - | - |
| 1778268078 | 23.33° C | 41% | 1005 hPa | - | - | - | - |
| 1778264478 | 23.33° C | 42% | 1004.5 hPa | - | - | - | - |
| 1778262676 | 23.33° C | 42% | 1004.6 hPa | - | - | - | - |
| 1778260874 | 23.89° C | 42% | 1004.5 hPa | - | - | - | - |
| 1778259082 | 23.89° C | 42% | 1004.3 hPa | - | - | - | - |
| 1778256202 | 23.89° C | 43% | 1004.1 hPa | - | - | - | - |
| 1778252969 | 23.89° C | 42% | 1004.4 hPa | - | - | - | - |
| 1778251152 | 23.89° C | 42% | 1004.5 hPa | - | - | - | - |
| 1778249720 | 23.89° C | 42% | 1004.8 hPa | - | - | - | - |
| 1778247916 | 23.89° C | 42% | 1004.9 hPa | - | - | - | - |
| 1778245036 | 23.33° C | 43% | 1004.8 hPa | - | - | - | - |
| 1778240485 | 22.78° C | 44% | 1005 hPa | - | - | - | - |
| 1778238684 | 22.78° C | 44% | 1005.2 hPa | - | - | - | - |
| 1778235804 | 21.67° C | 44% | 1005.5 hPa | - | - | - | - |
| 1778234366 | 21.67° C | 45% | 1005.7 hPa | - | - | - | - |
| 1778232924 | 21.11° C | 45% | 1005.7 hPa | - | - | - | - |
| 1778231484 | 21.11° C | 47% | 1005.6 hPa | - | - | - | - |
| 1778230046 | 20.56° C | 47% | 1005.6 hPa | - | - | - | - |
* Rain since midnight (hover to see other rain measurements)
** Current wind speed in m/s (hover to see current wind gust speed)